カタログに戻る

STARLINK-36191

運用中通信VLEO
NORAD 67023·PAYLOAD·🇺🇸 United States

打ち上げ Dec 10, 2025 から Vandenberg Space Force Base

Loading…

次のパス (今後24時間)

TLE

最新Source: CelesTrak SupGP

元期: Sep 14, 2026, 21:09 UTC

1 67023C 25293W   26257.88173611 -.00049780  00000+0 -41719-2 0  2576
2 67023  70.0021 337.5858 0003312 272.4993  72.4462 14.98353200    15

AllMySatでSTARLINK-36191をリアルタイム追跡

Download on the App Store